Flag Weather past 2 weeks in Magdeburg, Saxony-Anhalt, Germany

Now
36 °F

Fog.


Feels Like: 33 °F
Forecast: 26 / 33 °F
Wind: 3 mph from East

Location: Magdeburg

Current Time: Nov 28, 2014 at 1:58:34 AM

Latest Report: Nov 28, 2014 at 1:00 AM


Visibility: 3 mi

Pressure: 30.00 "Hg

Humidity: 84%

Dew point: 32 °F

Location of MagdeburgLocation

Historic Weather in Magdeburg — Graph

°F

Magdeburg temperature yesterday

Maximum temperature yesterday: 41 °F (at 2:00 PM)
Minimum temperature yesterday: 31 °F (at 7:00 AM)
Average temperature yesterday: 36 °F

Past Weeks' High & Low Weather Summary

 TemperatureHumidityPressure
High56 °F (Nov 14, 3:00 PM)99% (Nov 25, 8:00 AM)30.38 "Hg (Nov 25, 8:00 AM)
Low31 °F (Nov 27, 7:00 AM)70% (Nov 27, 2:00 PM)29.53 "Hg (Nov 16, 2:00 PM)
Average44 °F89%30.05 "Hg
* Reported Midnight between Nov 12 and Nov 13 — Midnight between Nov 27 and Nov 28, Magdeburg, Weather by CustomWeather, © 2014

Note: Actual official high and low records may vary slightly from our data, if they occured in-between our weather recording intervals... More about our weather records

Advertising

Magdeburg weather history for previous 24 hours

 ConditionsComfort  
Time TempWeatherWind HumidityBarometerVisibility
12:00 AM
Nov 28
36 °FFog.5 mph84%30.00 "Hg4 mi
11:00 PM
Nov 27
35 °FFog.3 mph86%29.99 "Hg3 mi
10:00 PM35 °FClear.3 mph82%29.98 "Hg5 mi
9:00 PM37 °FOvercast.3 mph77%29.98 "Hg6 mi
8:00 PM38 °FOvercast.5 mph76%29.97 "Hg6 mi
7:00 PM37 °FOvercast.3 mph80%29.96 "Hg6 mi
6:00 PM37 °FOvercast.3 mph82%29.96 "Hg6 mi
5:00 PM38 °FPassing clouds.3 mph81%29.95 "Hg6 mi
4:00 PM40 °FPartly sunny.5 mph75%29.94 "Hg7 mi
3:00 PM41 °FPartly sunny.3 mph73%29.94 "Hg10 mi
2:00 PM41 °FScattered clouds.3 mph70%29.94 "Hg11 mi
1:00 PM40 °FScattered clouds.5 mph71%29.96 "Hg12 mi
12:00 PM39 °FPassing clouds.3 mph73%29.97 "Hg10 mi
11:00 AM37 °FScattered clouds.3 mph78%29.99 "Hg9 mi
9:00 AM32 °FFog.2 mph90%30.01 "Hg4 mi
8:00 AM31 °FFog.2 mph92%30.00 "Hg4 mi
7:00 AM31 °FFog.2 mph93%30.00 "Hg4 mi
6:00 AM31 °FFog.2 mph92%30.01 "Hg4 mi
5:00 AM31 °FFog.1 mph92%30.01 "Hg4 mi
3:00 AM33 °FFog.2 mph88%30.04 "Hg4 mi
2:00 AM33 °FFog.2 mph90%30.05 "Hg4 mi
1:00 AM34 °FFog.2 mph88%30.07 "Hg4 mi
Weather by CustomWeather, © 2014

See weather overviewHow to use our weather pages